51,2013-07-17 19:27:50,1374089270,55.20787,-10.10259,3,2,2013-07-17 19:26:00,1374089160,17.95,1,15.8,0,4095,55.202,-10.0748,38,48
52,2013-07-17 20:06:11,1374091571,55.18217,-10.16442,2,2,2013-07-17 20:00:00,1374091200,18.35,2,15.8,42,4095,55.202,-10.0748,38,48
53,2013-07-17 20:19:53,1374092393,54.9971,-6.83036,225,1,2013-07-17 20:18:00,1374092280,15.08,7,15.8,0,4095,55.191,-10.0778,8,44
54,2013-07-17 21:06:12,1374095172,55.18737,-10.10259,2,2,2013-07-17 21:00:00,1374094800,15.07,7,15.8,37,0,55.1958,-10.0694,10,44
55,2013-07-17 22:06:11,1374098771,55.21303,-10.04073,10,5,2013-07-17 22:00:00,1374098400,15.06,6,15.8,30,60,55.1958,-10.0694,10,44
56,2013-07-17 23:06:12,1374102372,55.16348,-10.02979,3,2,2013-07-17 23:00:00,1374102000,15.05,6,15.8,30,120,55.1958,-10.0694,10,44
57,2013-07-18 00:06:20,1374105980,55.16348,-10.02979,2,2,2013-07-18 00:00:00,1374105600,15.04,5,15.8,30,0,55.195,-10.0242,34,44
58,2013-07-18 01:06:12,1374109572,55.21303,-10.04073,9,1,2013-07-18 01:00:00,1374109200,15.03,5,15.8,30,60,55.195,-10.0242,34,44
59,2013-07-18 02:06:09,1374113169,55.1686,-9.96798,2,1,2013-07-18 02:00:00,1374112800,15.03,5,15.8,30,120,55.195,-10.0242,34,44
60,2013-07-18 03:06:07,1374116767,55.15833,-10.09158,2,1,2013-07-18 03:00:00,1374116400,15.04,5,15.8,30,0,55.1864,-10.0128,58,44
61,2013-07-18 04:06:09,1374120369,55.16348,-10.02979,2,1,2013-07-18 04:00:00,1374120000,15.04,5,15.8,30,60,55.1864,-10.0128,58,44
62,2013-07-18 05:06:11,1374123971,55.19766,-9.97886,3,2,2013-07-18 05:00:00,1374123600,15.04,5,15.8,30,120,55.1864,-10.0128,58,44
63,2013-07-18 06:06:13,1374127573,55.21816,-9.97886,2,1,2013-07-18 06:00:00,1374127200,15.05,5,15.8,30,0,55.1964,-10.024,32,48
64,2013-07-18 07:06:11,1374131171,55.21303,-10.04073,2,3,2013-07-18 07:00:00,1374130800,15.06,6,15.8,30,60,55.1964,-10.024,32,48
65,2013-07-18 08:06:12,1374134772,55.21303,-10.04073,4,1,2013-07-18 08:00:00,1374134400,15.09,5,15.8,30,120,55.1964,-10.024,32,48
66,2013-07-18 09:06:15,1374138375,55.19253,-10.04073,3,28,2013-07-18 09:00:00,1374138000,15.12,4,15.8,30,0,55.2086,-10.0188,32,44
67,2013-07-18 10:06:10,1374141970,55.20159,-12.80148,194,2,2013-07-18 10:00:00,1374141600,15.18,5,15.8,30,60,55.2086,-10.0188,32,44
68,2013-07-18 11:06:09,1374145569,55.21816,-9.97886,2,3,2013-07-18 11:00:00,1374145200,15.21,5,15.8,30,120,55.2086,-10.0188,32,44
69,2013-07-18 12:06:15,1374149175,55.24153,-10.75488,97,3,2013-07-18 12:00:00,1374148800,15.24,6,15.8,30,0,55.2168,-9.9846,32,48
70,2013-07-18 13:06:12,1374152772,55.19766,-9.97886,4,2,2013-07-18 13:00:00,1374152400,15.24,6,15.8,30,60,55.2168,-9.9846,32,48
71,2013-07-18 14:06:09,1374156369,55.23173,-10.17551,66,3,2013-07-18 14:00:00,1374156000,15.29,4,15.8,30,120,55.2168,-9.9846,32,48
72,2013-07-18 15:06:12,1374159972,55.21816,-9.97886,2,10,2013-07-18 15:00:00,1374159600,15.42,6,15.8,30,0,55.2112,-9.965,32,48
73,2013-07-18 16:06:12,1374163572,55.24723,-9.98976,80,4,2013-07-18 16:00:00,1374163200,15.45,4,15.8,30,60,55.2112,-9.965,32,48
74,2013-07-18 17:06:11,1374167171,55.24723,-9.98976,7,1,2013-07-18 17:00:00,1374166800,15.45,5,15.8,30,120,55.2112,-9.965,32,48
75,2013-07-18 18:06:46,1374170806,55.21303,-10.04073,5,2,2013-07-18 18:00:00,1374170400,15.37,5,15.8,30,0,55.2162,-9.97919999999999,32,48
76,2013-07-18 19:06:13,1374174373,55.24723,-9.98976,5,6,2013-07-18 19:00:00,1374174000,15.39,7,15.8,46,60,55.2162,-9.97919999999999,32,48
77,2013-07-18 20:06:09,1374177969,55.24723,-9.98976,13,3,2013-07-18 20:00:00,1374177600,15.38,6,15.8,30,120,55.2162,-9.97919999999999,32,48
78,2013-07-18 21:06:11,1374181571,55.24723,-9.98976,4,8,2013-07-18 21:00:00,1374181200,15.41,5,15.8,30,0,55.2266,-9.98699999999999,32,44
79,2013-07-18 22:06:11,1374185171,55.21816,-9.97886,6,2,2013-07-18 22:00:00,1374184800,15.41,5,15.8,30,60,55.2266,-9.98699999999999,32,44
80,2013-07-18 23:06:10,1374188770,55.25234,-9.92779,3,8,2013-07-18 23:00:00,1374188400,15.4,5,15.8,30,120,55.2266,-9.98699999999999,32,44
81,2013-07-19 00:06:12,1374192372,55.21816,-9.97886,4,2,2013-07-19 00:00:00,1374192000,15.33,5,15.8,30,0,55.242,-9.9546,50,40
82,2013-07-19 01:06:11,1374195971,55.48648,-5.89963,264,6,2013-07-19 01:00:00,1374195600,15.28,6,15.8,30,60,55.242,-9.9546,50,40
83,2013-07-19 02:06:50,1374199610,55.22326,-9.91696,5,2,2013-07-19 02:00:00,1374199200,15.31,6,15.8,30,120,55.242,-9.9546,50,40
84,2013-07-19 03:06:12,1374203172,55.22326,-9.91696,10,1,2013-07-19 03:00:00,1374202800,15.31,5,15.8,50,0,55.2426,-9.92959999999999,62,44
85,2013-07-19 04:06:11,1374206771,55.25234,-9.92779,3,7,2013-07-19 04:00:00,1374206400,15.28,5,15.8,30,60,55.2426,-9.92959999999999,62,44
86,2013-07-19 05:06:10,1374210370,55.24723,-9.98976,4,2,2013-07-19 05:00:00,1374210000,15.25,5,15.8,30,120,55.2426,-9.92959999999999,62,44
87,2013-07-19 06:06:10,1374213970,55.22326,-9.91696,3,1,2013-07-19 06:00:00,1374213600,15.23,7,15.8,30,0,55.2418,-9.94139999999999,56,44
88,2013-07-19 07:06:10,1374217570,55.21816,-9.97886,2,1,2013-07-19 07:00:00,1374217200,15.24,6,15.8,30,60,55.2418,-9.94139999999999,56,44
89,2013-07-19 08:06:19,1374221179,55.2677,-9.98976,12,1,2013-07-19 08:00:00,1374220800,15.25,6,15.8,30,120,55.2418,-9.94139999999999,56,44
90,2013-07-19 09:06:12,1374224772,55.25234,-9.92779,2,4,2013-07-19 09:00:00,1374224400,15.27,8,15.8,30,0,55.2492,-9.9562,62,44
91,2013-07-19 10:06:13,1374228373,55.14867,-14.99616,327,1,2013-07-19 10:00:00,1374228000,15.31,6,15.8,30,60,55.2492,-9.9562,62,44
92,2013-07-19 11:06:34,1374231994,55.21816,-9.97886,4,2,2013-07-19 11:00:00,1374231600,15.36,7,15.8,30,120,55.2492,-9.9562,62,44
93,2013-07-19 12:06:13,1374235573,55.41364,-12.80987,194,4,2013-07-19 12:00:00,1374235200,15.43,6,15.8,33,0,55.2614,-9.9426,62,48
94,2013-07-19 13:06:12,1374239172,55.2677,-9.98976,1,3,2013-07-19 13:00:00,1374238800,15.52,6,15.8,30,60,55.2614,-9.9426,62,48
95,2013-07-19 14:06:11,1374242771,55.39132,-12.73429,199,2,2013-07-19 14:00:00,1374242400,15.59,6,15.8,30,120,55.2614,-9.9426,62,48
96,2013-07-19 15:06:10,1374246370,55.25234,-9.92779,2,11,2013-07-19 15:00:00,1374246000,15.65,8,15.8,30,0,55.2604,-9.92939999999999,62,44
97,2013-07-19 16:06:10,1374249970,55.22371,-9.15234,80,3,2013-07-19 16:00:00,1374249600,15.65,7,15.8,30,60,55.2604,-9.92939999999999,62,44
98,2013-07-19 17:06:11,1374253571,55.24723,-9.98976,2,6,2013-07-19 17:00:00,1374253200,15.69,7,15.8,30,120,55.2604,-9.92939999999999,62,44
99,2013-07-19 18:06:09,1374257169,55.23765,-8.96609,93,2,2013-07-19 18:00:00,1374256800,15.67,7,15.8,30,0,55.2616,-9.94399999999999,92,48
100,2013-07-19 19:06:16,1374260776,55.29679,-10.00068,3,2,2013-07-19 19:00:00,1374260400,15.67,9,15.8,30,60,55.2616,-9.94399999999999,92,48
101,2013-07-19 20:06:09,1374264369,55.24723,-9.98976,13,1,2013-07-19 20:00:00,1374264000,15.65,8,15.8,30,120,55.2616,-9.94399999999999,92,48
102,2013-07-19 21:06:14,1374267974,55.27281,-9.92779,2,3,2013-07-19 21:00:00,1374267600,15.66,6,15.8,30,0,55.2762,-9.95139999999998,94,48
103,2013-07-19 22:06:20,1374271580,55.25234,-9.92779,4,2,2013-07-19 22:00:00,1374271200,15.68,7,15.8,30,60,55.2762,-9.95139999999998,94,48
104,2013-07-19 23:06:11,1374275171,55.24723,-9.98976,9,1,2013-07-19 23:00:00,1374274800,15.71,6,15.8,30,120,55.2762,-9.95139999999998,94,48
105,2013-07-20 00:06:13,1374278773,55.27281,-9.92779,4,1,2013-07-20 00:00:00,1374278400,15.75,7,15.8,30,0,55.2838,-9.92779999999999,112,44
106,2013-07-20 01:06:11,1374282371,55.30698,-9.8766,4,1,2013-07-20 01:00:00,1374282000,15.77,7,15.8,30,60,55.2838,-9.92779999999999,112,44
107,2013-07-20 02:06:09,1374285969,55.25234,-9.92779,3,2,2013-07-20 02:00:00,1374285600,15.75,7,15.8,30,120,55.2838,-9.92779999999999,112,44
108,2013-07-20 03:06:11,1374289571,55.3019,-9.93865,7,7,2013-07-20 03:00:00,1374289200,15.74,7,15.8,30,0,55.2818,-9.905,14,44
109,2013-07-20 04:06:11,1374293171,55.25741,-9.86581,2,4,2013-07-20 04:00:00,1374292800,15.73,7,15.8,30,60,55.2818,-9.905,14,44
110,2013-07-20 05:06:09,1374296769,55.25234,-9.92779,3,1,2013-07-20 05:00:00,1374296400,15.73,7,15.8,30,120,55.2818,-9.905,14,44
111,2013-07-20 06:06:09,1374300369,55.27281,-9.92779,2,1,2013-07-20 06:00:00,1374300000,15.78,7,15.8,30,0,55.277,-9.90719999999999,62,48
112,2013-07-20 07:06:12,1374303972,55.22832,-9.85504,15,1,2013-07-20 07:00:00,1374303600,15.8,5,15.8,30,60,55.277,-9.90719999999999,62,48
113,2013-07-20 08:06:17,1374307577,55.27788,-9.86581,2,1,2013-07-20 08:00:00,1374307200,15.87,7,15.8,30,120,55.277,-9.90719999999999,62,48
114,2013-07-20 09:06:24,1374311184,55.29679,-10.00068,2,11,2013-07-20 09:00:00,1374310800,16.02,6,15.8,30,0,55.2836,-9.9314,16,40
115,2013-07-20 10:06:13,1374314773,55.27281,-9.92779,8,1,2013-07-20 10:00:00,1374314400,16.05,6,15.8,30,60,55.2836,-9.9314,16,40
116,2013-07-20 11:06:09,1374318369,55.3019,-9.93865,1,3,2013-07-20 11:00:00,1374318000,16.35,6,15.8,30,120,55.2836,-9.9314,16,40
117,2013-07-20 12:06:13,1374321973,55.35145,-9.94954,12,3,2013-07-20 12:00:00,1374321600,16.44,6,15.8,30,0,55.2936,-9.91419999999999,32,48
118,2013-07-20 13:06:10,1374325570,55.30698,-9.8766,6,2,2013-07-20 13:00:00,1374325200,16.51,5,15.8,30,60,55.2936,-9.91419999999999,32,48
119,2013-07-20 14:06:09,1374329169,55.49611,-14.32794,10,2,2013-07-20 14:00:00,1374328800,16.71,6,15.8,30,120,55.2936,-9.91419999999999,32,48
120,2013-07-20 15:06:13,1374332773,55.30698,-9.8766,3,1,2013-07-20 15:00:00,1374332400,16.8,5,15.8,30,0,55.2962,-9.89259999999999,32,48
121,2013-07-20 16:06:09,1374336369,55.3764,-11.37182,115,2,2013-07-20 16:00:00,1374336000,16.91,6,15.8,30,60,55.2962,-9.89259999999999,32,48
122,2013-07-20 17:06:16,1374339976,55.3019,-9.93865,2,2,2013-07-20 17:00:00,1374339600,16.95,5,15.8,30,120,55.2962,-9.89259999999999,32,48
123,2013-07-20 18:06:13,1374343573,55.22371,-9.15234,844,2,2013-07-20 18:00:00,1374343200,17.07,5,15.8,30,0,55.2924,-9.89659999999998,62,48
124,2013-07-20 19:06:16,1374347176,55.27788,-9.86581,2,2,2013-07-20 19:00:00,1374346800,17.11,6,15.8,30,60,55.2924,-9.89659999999998,62,48
125,2013-07-20 20:06:10,1374350770,55.24425,-8.45923,113,7,2013-07-20 20:00:00,1374350400,17.06,6,15.8,30,120,55.2924,-9.89659999999998,62,48
126,2013-07-20 21:06:12,1374354372,55.3019,-9.93865,2,2,2013-07-20 21:00:00,1374354000,16.99,5,15.8,30,0,55.3052,-9.92419999999998,32,48
127,2013-07-20 22:06:13,1374357973,55.29021,-8.08558,143,5,2013-07-20 22:00:00,1374357600,16.96,8,15.8,30,60,55.3052,-9.92419999999998,32,48
128,2013-07-20 23:06:11,1374361571,55.30698,-9.8766,2,3,2013-07-20 23:00:00,1374361200,16.95,5,15.8,30,120,55.3052,-9.92419999999998,32,48
129,2013-07-21 00:06:12,1374365172,55.3019,-9.93865,2,7,2013-07-21 00:00:00,1374364800,16.92,6,15.8,30,0,55.3242,-9.90619999999998,32,48
130,2013-07-21 01:06:13,1374368773,55.27788,-9.86581,3,1,2013-07-21 01:00:00,1374368400,16.91,5,15.8,30,60,55.3242,-9.90619999999998,32,48
131,2013-07-21 02:06:12,1374372372,55.31204,-9.81452,2,6,2013-07-21 02:00:00,1374372000,16.58,5,15.8,30,120,55.3242,-9.90619999999998,32,48
132,2013-07-21 03:06:12,1374375972,55.44108,-7.28968,175,6,2013-07-21 03:00:00,1374375600,16.38,5,15.8,30,0,55.33,-9.86539999999999,10,44
133,2013-07-21 04:06:15,1374379575,55.30698,-9.8766,2,4,2013-07-21 04:00:00,1374379200,16.28,5,15.8,30,60,55.33,-9.86539999999999,10,44
134,2013-07-21 05:06:10,1374383170,55.31204,-9.81452,3,1,2013-07-21 05:00:00,1374382800,16.27,5,15.8,30,120,55.33,-9.86539999999999,10,44
135,2013-07-21 06:06:15,1374386775,55.31204,-9.81452,2,1,2013-07-21 06:00:00,1374386400,16.26,6,15.8,30,0,55.3168,-9.85079999999999,50,48
136,2013-07-21 07:06:24,1374390384,55.32235,-9.93865,4,0,2013-07-21 07:00:00,1374390000,16.33,6,15.8,30,60,55.3168,-9.85079999999999,50,48
137,2013-07-21 08:06:18,1374393978,55.3019,-9.93865,3,1,2013-07-21 08:00:00,1374393600,16.34,7,15.8,30,120,55.3168,-9.85079999999999,50,48
138,2013-07-21 09:06:12,1374397572,55.3019,-9.93865,4,2,2013-07-21 09:00:00,1374397200,16.36,5,15.8,30,0,55.3146,-9.89239999999998,10,40
139,2013-07-21 10:06:13,1374401173,55.35654,-9.88742,6,4,2013-07-21 10:00:00,1374400800,16.5,5,15.8,30,60,55.3146,-9.89239999999998,10,40
140,2013-07-21 11:06:10,1374404770,55.30698,-9.8766,2,3,2013-07-21 11:00:00,1374404400,16.64,6,15.8,30,120,55.3146,-9.89239999999998,10,40
141,2013-07-21 12:06:13,1374408373,55.35145,-9.94954,4,8,2013-07-21 12:00:00,1374408000,16.76,6,15.8,30,0,55.336,-9.91579999999999,56,48
142,2013-07-21 13:06:12,1374411972,55.32235,-9.93865,4,2,2013-07-21 13:00:00,1374411600,16.83,6,15.8,30,60,55.336,-9.91579999999999,56,48
143,2013-07-21 14:06:10,1374415570,55.3616,-9.82528,4,3,2013-07-21 14:00:00,1374415200,16.91,6,15.8,30,120,55.336,-9.91579999999999,56,48
144,2013-07-21 15:06:13,1374419173,55.35654,-9.88742,2,6,2013-07-21 15:00:00,1374418800,16.88,7,15.8,30,0,55.3588,-9.87279999999998,92,48
145,2013-07-21 16:06:13,1374422773,55.44207,-11.84307,162,6,2013-07-21 16:00:00,1374422400,16.83,5,15.8,30,60,55.3588,-9.87279999999998,92,48
146,2013-07-21 17:08:41,1374426521,55.3616,-9.82528,3,1,2013-07-21 17:00:00,1374426000,16.76,6,15.8,30,120,55.3588,-9.87279999999998,92,48
147,2013-07-21 18:06:10,1374429970,55.38052,-10.66619,84,2,2013-07-21 18:00:00,1374429600,16.74,6,15.8,159,0,55.3506,-9.83179999999999,62,44
148,2013-07-21 19:06:42,1374433602,55.3616,-9.82528,4,1,2013-07-21 19:00:00,1374433200,16.67,7,15.8,30,60,55.3506,-9.83179999999999,62,44
149,2013-07-21 20:06:09,1374437169,55.38992,-10.7902,112,2,2013-07-21 20:00:00,1374436800,16.82,7,15.8,42,120,55.3506,-9.83179999999999,62,44
150,2013-07-21 21:06:11,1374440771,55.35654,-9.88742,4,5,2013-07-21 21:00:00,1374440400,16.77,6,15.8,30,0,55.3398,-9.863,34,44
151,2013-07-21 22:06:09,1374444369,55.32235,-9.93865,2,1,2013-07-21 22:00:00,1374444000,16.82,6,15.8,30,60,55.3398,-9.863,34,44
152,2013-07-21 23:06:09,1374447969,55.3616,-9.82528,3,1,2013-07-21 23:00:00,1374447600,16.83,6,15.8,30,120,55.3398,-9.863,34,44
153,2013-07-22 00:06:10,1374451570,55.32743,-9.8766,3,7,2013-07-22 00:00:00,1374451200,16.78,5,15.8,30,0,55.3646,-9.8954,34,48
154,2013-07-22 01:06:09,1374455169,55.36508,-10.14685,73,1,2013-07-22 01:00:00,1374454800,16.72,5,15.8,30,60,55.3646,-9.8954,34,48
155,2013-07-22 02:06:10,1374458770,55.35654,-9.88742,5,1,2013-07-22 02:00:00,1374458400,16.71,5,15.8,30,120,55.3646,-9.8954,34,48
156,2013-07-22 03:06:11,1374462371,55.37659,-9.63871,80,8,2013-07-22 03:00:00,1374462000,16.63,5,15.8,30,0,55.39,-9.85819999999998,10,44
157,2013-07-22 04:06:11,1374465971,55.41114,-9.83605,3,1,2013-07-22 04:00:00,1374465600,16.53,5,15.8,30,60,55.39,-9.85819999999998,10,44
158,2013-07-22 05:06:16,1374469576,55.41114,-9.83605,8,2,2013-07-22 05:00:00,1374469200,16.47,5,15.8,30,120,55.39,-9.85819999999998,10,44
159,2013-07-22 06:06:09,1374473169,55.41114,-9.83605,4,1,2013-07-22 06:00:00,1374472800,16.47,5,15.8,30,0,55.3838,-9.8092,62,48
160,2013-07-22 07:06:09,1374476769,55.3616,-9.82528,5,1,2013-07-22 07:00:00,1374476400,16.48,6,15.8,30,60,55.3838,-9.8092,62,48
161,2013-07-22 08:06:12,1374480372,55.41114,-9.83605,7,1,2013-07-22 08:00:00,1374480000,16.54,5,15.8,30,120,55.3838,-9.8092,62,48
162,2013-07-22 09:06:12,1374483972,55.34249,-9.6903,25,1,2013-07-22 09:00:00,1374483600,16.53,7,15.8,30,0,55.3682,-9.8192,62,44
163,2013-07-22 10:06:09,1374487569,55.3616,-9.82528,1,1,2013-07-22 10:00:00,1374487200,16.68,6,15.8,30,60,55.3682,-9.8192,62,44
164,2013-07-22 11:06:11,1374491171,55.35654,-9.88742,7,4,2013-07-22 11:00:00,1374490800,16.82,6,15.8,30,120,55.3682,-9.8192,62,44
165,2013-07-22 12:06:12,1374494772,55.3616,-9.82528,2,5,2013-07-22 12:00:00,1374494400,17.09,6,15.8,30,0,55.3732,-9.86579999999998,62,48
166,2013-07-22 13:06:11,1374498371,55.38567,-9.89826,1,3,2013-07-22 13:00:00,1374498000,17.13,5,15.8,30,60,55.3732,-9.86579999999998,62,48
167,2013-07-22 14:06:09,1374501969,55.40607,-9.89826,3,3,2013-07-22 14:00:00,1374501600,17.07,6,15.8,30,120,55.3732,-9.86579999999998,62,48
168,2013-07-22 15:06:11,1374505571,55.3616,-9.82528,2,6,2013-07-22 15:00:00,1374505200,17.11,4,15.8,30,0,55.4002,-9.86259999999999,32,48
169,2013-07-22 16:06:09,1374509169,55.38704,-9.76311,4,3,2013-07-22 16:00:00,1374508800,17.16,7,15.8,30,60,55.4002,-9.86259999999999,32,48
170,2013-07-22 17:06:10,1374512770,55.41114,-9.83605,2,9,2013-07-22 17:00:00,1374512400,17.17,4,15.8,30,120,55.4002,-9.86259999999999,32,48
171,2013-07-22 18:06:21,1374516381,55.5925,-13.12784,220,2,2013-07-22 18:00:00,1374516000,17.12,6,15.8,30,0,55.41,-9.8014,62,40
172,2013-07-22 19:06:10,1374519970,55.41114,-9.83605,3,2,2013-07-22 19:00:00,1374519600,16.67,6,15.8,30,60,55.41,-9.8014,62,40
173,2013-07-22 20:06:18,1374523578,55.39348,-10.40644,148,2,2013-07-22 20:00:00,1374523200,16.53,6,15.8,30,120,55.41,-9.8014,62,40
174,2013-07-22 21:06:19,1374527179,55.41618,-9.77382,2,6,2013-07-22 21:00:00,1374526800,16.55,5,15.8,30,0,55.399,-9.79319999999998,32,48
175,2013-07-22 22:06:10,1374530770,55.36663,-9.76311,4,2,2013-07-22 22:00:00,1374530400,16.64,7,15.8,30,60,55.399,-9.79319999999998,32,48
176,2013-07-22 23:06:10,1374534370,55.3616,-9.82528,6,3,2013-07-22 23:00:00,1374534000,16.83,6,15.8,30,120,55.399,-9.79319999999998,32,48
177,2013-07-23 00:06:14,1374537974,55.38704,-9.76311,3,3,2013-07-23 00:00:00,1374537600,16.91,7,15.8,30,0,55.3996,-9.82339999999999,32,48
178,2013-07-23 01:06:17,1374541577,55.31439,-11.80428,145,2,2013-07-23 01:00:00,1374541200,17,6,15.8,30,60,55.3996,-9.82339999999999,32,48
179,2013-07-23 02:06:10,1374545170,55.3616,-9.82528,3,2,2013-07-23 02:00:00,1374544800,16.92,5,15.8,30,120,55.3996,-9.82339999999999,32,48
180,2013-07-23 03:06:11,1374548771,55.46994,-8.9529,98,1,2013-07-23 03:00:00,1374548400,16.77,5,15.8,30,0,55.4188,-9.81299999999999,32,48
181,2013-07-23 04:06:11,1374552371,55.44029,-9.84685,4,2,2013-07-23 04:00:00,1374552000,16.7,6,15.8,30,60,55.4188,-9.81299999999999,32,48
182,2013-07-23 05:06:14,1374555974,55.46331,-8.6308,98,1,2013-07-23 05:00:00,1374555600,16.6,4,15.8,30,120,55.4188,-9.81299999999999,32,48
183,2013-07-23 06:06:10,1374559570,55.41114,-9.83605,2,7,2013-07-23 06:00:00,1374559200,16.55,4,15.8,30,0,55.4242,-9.77339999999998,32,48
184,2013-07-23 07:06:10,1374563170,55.52637,-7.69096,171,1,2013-07-23 07:00:00,1374562800,16.5,4,15.8,30,60,55.4242,-9.77339999999998,32,48
185,2013-07-23 08:06:11,1374566771,55.42118,-9.71157,1,5,2013-07-23 08:00:00,1374566400,16.6,4,15.8,30,120,55.4242,-9.77339999999998,32,48
186,2013-07-23 09:06:11,1374570371,55.41114,-9.83605,3,1,2013-07-23 09:00:00,1374570000,16.65,4,15.8,30,0,55.4156,-9.7638,32,48
187,2013-07-23 10:06:12,1374573972,55.36663,-9.76311,5,1,2013-07-23 10:00:00,1374573600,16.77,4,15.8,30,60,55.4156,-9.7638,32,48
188,2013-07-23 11:06:10,1374577570,55.41114,-9.83605,2,4,2013-07-23 11:00:00,1374577200,16.84,5,15.8,30,120,55.4156,-9.7638,32,48
189,2013-07-23 12:06:13,1374581173,55.41114,-9.83605,2,3,2013-07-23 12:00:00,1374580800,16.93,5,15.8,30,0,55.4054,-9.797,32,48
190,2013-07-23 13:06:14,1374584774,55.41618,-9.77382,8,3,2013-07-23 13:00:00,1374584400,17.14,6,15.8,30,60,55.4054,-9.797,32,48
191,2013-07-23 14:06:11,1374588371,55.36663,-9.76311,3,2,2013-07-23 14:00:00,1374588000,17.15,6,15.8,30,120,55.4054,-9.797,32,48
192,2013-07-23 15:06:12,1374591972,55.41114,-9.83605,3,7,2013-07-23 15:00:00,1374591600,16.85,6,15.8,30,0,55.4194,-9.815,32,48
193,2013-07-23 16:06:10,1374595570,55.41114,-9.83605,3,5,2013-07-23 16:00:00,1374595200,16.85,5,15.8,30,60,55.4194,-9.815,32,48
194,2013-07-23 17:06:11,1374599171,55.44029,-9.84685,2,10,2013-07-23 17:00:00,1374598800,16.95,5,15.8,30,120,55.4194,-9.815,32,48
195,2013-07-23 18:06:09,1374602769,55.65701,-13.28057,238,2,2013-07-23 18:00:00,1374602400,16.92,5,15.8,30,0,55.4348,-9.7834,32,48
196,2013-07-23 19:06:11,1374606371,55.41618,-9.77382,6,3,2013-07-23 19:00:00,1374606000,16.77,5,15.8,30,60,55.4348,-9.7834,32,48
197,2013-07-23 20:06:09,1374609969,55.5875,-12.60453,192,2,2013-07-23 20:00:00,1374609600,16.84,5,15.8,30,120,55.4348,-9.7834,32,48
198,2013-07-23 21:06:13,1374613573,55.41618,-9.77382,1,6,2013-07-23 21:00:00,1374613200,16.53,5,15.8,30,0,55.4356,-9.76179999999999,22,44
199,2013-07-23 22:06:11,1374617171,55.56152,-12.26747,181,2,2013-07-23 22:00:00,1374616800,16.31,6,15.8,30,60,55.4356,-9.76179999999999,22,44
200,2013-07-23 23:06:12,1374620772,55.42118,-9.71157,2,7,2013-07-23 23:00:00,1374620400,16.47,7,15.8,30,120,55.4356,-9.76179999999999,22,44
201,2013-07-24 00:06:13,1374624373,55.41114,-9.83605,2,2,2013-07-24 00:00:00,1374624000,16.67,6,15.8,30,0,55.4214,-9.779,82,48
202,2013-07-24 01:06:10,1374627970,55.41114,-9.83605,3,3,2013-07-24 01:00:00,1374627600,16.59,6,15.8,30,60,55.4214,-9.779,82,48
203,2013-07-24 02:06:12,1374631572,55.41618,-9.77382,2,2,2013-07-24 02:00:00,1374631200,16.37,6,15.6,30,120,55.4214,-9.779,82,48
204,2013-07-24 03:06:12,1374635172,55.36467,-11.49552,127,3,2013-07-24 03:00:00,1374634800,16.5,6,15.6,30,0,55.4268,-9.8116,62,48
205,2013-07-24 04:06:13,1374638773,55.41114,-9.83605,2,5,2013-07-24 04:00:00,1374638400,16.48,5,15.6,30,60,55.4268,-9.8116,62,48
206,2013-07-24 05:06:09,1374642369,55.44029,-9.84685,3,1,2013-07-24 05:00:00,1374642000,16.56,5,15.6,30,120,55.4268,-9.8116,62,48
207,2013-07-24 06:06:09,1374645969,55.45035,-9.72224,2,1,2013-07-24 06:00:00,1374645600,16.34,7,15.6,30,0,55.443,-9.78539999999998,32,48
208,2013-07-24 07:06:09,1374649569,55.51443,-8.32718,113,1,2013-07-24 07:00:00,1374649200,16.38,7,15.6,30,60,55.443,-9.78539999999998,32,48
209,2013-07-24 08:06:10,1374653170,55.46571,-9.78456,3,1,2013-07-24 08:00:00,1374652800,16.39,9,15.6,30,120,55.443,-9.78539999999998,32,48
210,2013-07-24 09:06:15,1374656775,55.41618,-9.77382,12,8,2013-07-24 09:00:00,1374656400,16.42,8,15.6,30,0,55.4404,-9.75899999999999,122,44
211,2013-07-24 10:06:12,1374660372,55.47073,-9.72224,5,1,2013-07-24 10:00:00,1374660000,16.47,7,15.6,30,60,55.4404,-9.75899999999999,122,44
212,2013-07-24 11:06:35,1374663995,55.38602,-5.25163,293,2,2013-07-24 11:00:00,1374663600,16.51,8,15.6,30,120,55.4404,-9.75899999999999,122,44
213,2013-07-24 12:06:16,1374667576,55.44534,-9.78456,4,3,2013-07-24 12:00:00,1374667200,16.5,7,15.6,35,0,55.4216,-9.77979999999999,86,44
214,2013-07-24 13:06:10,1374671170,55.41618,-9.77382,6,2,2013-07-24 13:00:00,1374670800,16.45,8,15.6,30,60,55.4216,-9.77979999999999,86,44
215,2013-07-24 14:06:10,1374674770,55.41618,-9.77382,2,2,2013-07-24 14:00:00,1374674400,16.46,7,15.6,30,120,55.4216,-9.77979999999999,86,44
216,2013-07-24 15:06:14,1374678374,55.44029,-9.84685,2,3,2013-07-24 15:00:00,1374678000,16.46,8,15.6,30,0,55.422,-9.8192,62,44
217,2013-07-24 16:06:12,1374681972,55.41114,-9.83605,13,5,2013-07-24 16:00:00,1374681600,16.36,6,15.6,30,60,55.422,-9.8192,62,44
218,2013-07-24 17:06:10,1374685570,55.41618,-9.77382,9,5,2013-07-24 17:00:00,1374685200,16.35,6,15.6,30,120,55.422,-9.8192,62,44
219,2013-07-24 18:06:12,1374689172,55.77064,-14.84099,328,4,2013-07-24 18:00:00,1374688800,16.36,7,15.6,30,0,55.4462,-9.79739999999998,62,48
220,2013-07-24 19:06:12,1374692772,55.44029,-9.84685,2,6,2013-07-24 19:00:00,1374692400,16.4,7,15.6,30,60,55.4462,-9.79739999999998,62,48
221,2013-07-24 20:06:10,1374696370,55.46571,-9.78456,10,2,2013-07-24 20:00:00,1374696000,16.32,6,15.6,30,120,55.4462,-9.79739999999998,62,48
222,2013-07-24 21:06:10,1374699970,55.46571,-9.78456,5,4,2013-07-24 21:00:00,1374699600,16.25,6,15.6,30,0,55.4518,-9.75199999999998,32,48
223,2013-07-24 22:06:13,1374703573,55.41618,-9.77382,2,4,2013-07-24 22:00:00,1374703200,16.27,6,15.6,30,60,55.4518,-9.75199999999998,32,48
224,2013-07-24 23:06:10,1374707170,55.45035,-9.72224,3,1,2013-07-24 23:00:00,1374706800,16.3,5,15.6,30,120,55.4518,-9.75199999999998,32,48
225,2013-07-25 00:06:11,1374710771,55.42118,-9.71157,2,5,2013-07-25 00:00:00,1374710400,16.22,6,15.6,30,0,55.4306,-9.76399999999998,62,44
226,2013-07-25 01:06:10,1374714370,55.32112,-14.34223,298,2,2013-07-25 01:00:00,1374714000,16.26,6,15.6,30,60,55.4306,-9.76399999999998,62,44
227,2013-07-25 02:06:13,1374717973,55.41114,-9.83605,2,4,2013-07-25 02:00:00,1374717600,16.26,6,15.6,30,120,55.4306,-9.76399999999998,62,44
228,2013-07-25 03:06:14,1374721574,55.27526,-13.15038,226,2,2013-07-25 03:00:00,1374721200,16.25,5,15.6,30,0,55.4284,-9.80199999999999,10,48